QPF
0.00 0.00 0.00 0.00 0.00 0.00 0.00 0.00 0.00 0.00 0.00 0.00 0.00 0.01 0.04 0.02 0.07 0.13 0.13 0.00 0.00 0.00 0.00 0.00 0.00 0.00 0.00 0.00 0.00 0.00 0.00 0.00 0.00 0.00 0.00 0.00 0.00 0.00 0.00 0.00 0.00 0.00 0.00 0.00 0.00 0.00 0.00 0.00 0.00
0.00 0.00 0.00 0.00 0.00 0.00 0.00 0.00 0.00 0.00 0.00 0.00 0.00 0.00 0.07 0.09 0.11 0.08 0.06 0.00 0.00 0.00 0.00 0.00 0.00 0.00 0.00 0.00 0.00 0.00 0.00 0.00 0.00 0.00 0.00 0.00 0.00 0.00 0.00 0.00 0.00 0.00 0.00 0.00 0.00 0.00 0.00 0.00 0.00
0.00 0.00 0.00 0.00 0.00 0.00 0.00 0.00 0.00 0.00 0.00 0.00 0.00 0.01 0.02 0.07 0.13 0.12 0.01 0.00 0.00 0.00 0.00 0.00 0.00 0.00 0.00 0.00 0.00 0.00 0.00 0.00 0.00 0.00 0.00 0.00 0.00 0.00 0.00 0.00 0.00 0.00 0.00 0.00 0.00 0.00 0.00 0.00 0.00
0.00 0.00 0.00 0.00 0.00 0.00 0.00 0.00 0.00 0.00 0.00 0.00 0.00 0.00 0.00 0.00 0.01 0.01 0.00 0.00 0.00 0.00 0.00 0.00 0.00 0.00 0.00 0.00 0.00 0.00 0.00 0.00 0.00 0.00 0.00 0.00 0.00 0.00 0.00 0.00 0.00 0.00 0.00 0.00 0.00 0.00 0.00 0.00 0.00
0.00 0.00 0.00 0.00 0.00 0.00 0.00 0.00 0.00 0.00 0.00 0.00 0.00 0.04 0.03 0.00 0.00 0.00 0.00 0.00 0.00 0.00 0.00 0.00 0.00 0.00 0.00 0.00 0.00 0.00 0.00 0.00 0.00 0.00 0.00 0.00 0.00 0.00 0.00 0.00 0.00 0.00 0.00 0.00 0.00 0.00 0.00 0.00 0.00
0.00 0.00 0.00 0.00 0.00 0.00 0.00 0.00 0.00 0.00 0.00 0.00 0.00 0.00 0.01 0.00 0.00 0.00 0.00 0.00 0.00 0.00 0.00 0.00 0.00 0.00 0.00 0.00 0.00 0.00 0.00 0.00 0.00 0.00 0.00 0.00 0.00 0.00 0.00 0.00 0.00 0.00 0.00 0.00 0.00 0.00 0.00 0.00 0.00
0.00 0.00 0.00 0.00 0.00 0.00 0.00 0.00 0.00 0.00 0.00 0.00 0.00 0.00 0.00 0.01 0.00 0.00 0.00 0.00 0.00 0.00 0.00 0.00 0.00 0.00 0.00 0.00 0.00 0.00 0.00 0.00 0.00 0.00 0.00 0.00 0.00 0.00 0.00 0.00 0.00 0.00 0.00 0.00 0.00 0.00 0.00 0.00 0.00
0.00 0.00 0.00 0.00 0.00 0.00 0.00 0.00 0.00 0.00 0.00 0.00 0.00 0.00 0.00 0.00 0.00 0.00 0.00 0.00 0.00 0.00 0.00 0.00 0.00 0.00 0.00 0.00 0.00 0.00 0.00 0.00 0.00 0.00 0.00 0.00 0.00 0.00 0.00 0.00 0.00 0.00 0.00 0.00 0.00 0.00 0.00 0.00 0.00
0.00 0.00 0.00 0.00 0.00 0.00 0.00 0.00 0.00 0.00 0.00 0.00 0.00 0.00 0.00 0.00 0.00 0.00 0.00 0.00 0.00 0.00 0.00 0.00 0.00 0.00 0.00 0.00 0.00 0.00 0.00 0.00 0.00 0.00 0.00 0.00 0.00 0.00 0.00 0.00 0.00 0.00 0.00 0.00 0.00 0.00 0.00 0.00 0.00
0.00 0.00 0.00 0.00 0.00 0.00 0.00 0.00 0.00 0.00 0.00 0.00 0.00 0.00 0.00 0.00 0.00 0.00 0.00 0.00 0.00 0.01 0.00 0.00 0.00 0.00 0.00 0.00 0.00 0.00 0.00 0.00 0.00 0.00 0.00 0.00 0.00 0.00 0.00 0.00 0.00 0.00 0.00 0.00 0.00 0.00 0.00 0.00 0.00
0.00 0.00 0.00 0.00 0.00 0.00 0.00 0.00 0.00 0.00 0.00 0.00 0.00 0.00 0.00 0.00 0.00 0.00 0.00 0.00 0.00 0.00 0.00 0.00 0.00 0.00 0.00 0.00 0.00 0.00 0.00 0.00 0.00 0.00 0.00 0.00 0.00 0.00 0.00 0.00 0.00 0.00 0.00 0.00 0.00 0.00 0.00 0.00 0.00
0.00 0.00 0.00 0.00 0.00 0.00 0.00 0.00 0.00 0.00 0.00 0.00 0.00 0.00 0.00 0.00 0.00 0.00 0.00 0.00 0.00 0.00 0.00 0.00 0.00 0.00 0.00 0.00 0.03 0.00 0.00 0.00 0.00 0.00 0.00 0.00 0.00 0.00 0.00 0.00 0.00 0.00 0.00 0.00 0.00 0.00 0.00 0.00 0.00
0.00 0.00 0.00 0.00 0.00 0.00 0.00 0.00 0.00 0.00 0.00 0.00 0.00 0.00 0.00 0.00 0.00 0.00 0.00 0.00 0.00 0.00 0.00 0.00 0.00 0.00 0.00 0.00 0.00 0.00 0.00 0.01 0.00 0.00 0.00 0.00 0.00 0.00 0.00 0.00 0.00 0.00 0.00 0.00 0.00 0.00 0.00 0.00 0.00
0.00 0.00 0.00 0.00 0.00 0.00 0.00 0.00 0.00 0.00 0.00 0.00 0.00 0.00 0.00 0.00 0.00 0.00 0.00 0.00 0.00 0.00 0.00 0.00 0.00 0.00 0.00 0.00 0.00 0.00 0.00 0.00 0.03 0.08 0.05 0.01 0.00 0.00 0.00 0.00 0.00 0.00 0.00 0.00 0.00 0.00 0.00 0.00 0.00
0.00 0.00 0.00 0.00 0.00 0.00 0.00 0.00 0.00 0.00 0.00 0.00 0.00 0.00 0.00 0.00 0.00 0.00 0.00 0.00 0.00 0.00 0.00 0.00 0.00 0.00 0.00 0.00 0.00 0.00 0.00 0.00 0.04 0.08 0.06 0.10 0.02 0.00 0.00 0.00 0.00 0.00 0.00 0.00 0.00 0.00 0.00 0.00 0.00
0.00 0.00 0.00 0.00 0.00 0.00 0.00 0.00 0.00 0.00 0.00 0.00 0.00 0.00 0.00 0.00 0.00 0.00 0.00 0.00 0.00 0.00 0.00 0.00 0.00 0.00 0.00 0.00 0.00 0.00 0.00 0.00 0.01 0.02 0.04 0.06 0.02 0.00 0.00 0.00 0.00 0.00 0.00 0.00 0.00 0.00 0.00 0.00 0.00
0.00 0.00 0.00 0.00 0.00 0.00 0.00 0.00 0.00 0.00 0.00 0.00 0.00 0.00 0.00 0.00 0.00 0.00 0.00 0.00 0.00 0.00 0.00 0.00 0.00 0.00 0.00 0.00 0.00 0.00 0.00 0.00 0.00 0.04 0.08 0.10 0.08 0.02 0.00 0.00 0.00 0.00 0.00 0.00 0.00 0.00 0.00 0.00 0.00
0.00 0.00 0.00 0.00 0.00 0.00 0.00 0.00 0.00 0.00 0.00 0.00 0.00 0.00 0.00 0.00 0.00 0.00 0.00 0.00 0.00 0.00 0.00 0.00 0.00 0.00 0.00 0.00 0.00 0.00 0.00 0.00 0.00 0.01 0.08 0.10 0.09 0.05 0.02 0.01 0.00 0.01 0.03 0.01 0.02 0.02 0.00 0.00 0.00
0.00 0.00 0.00 0.00 0.00 0.00 0.00 0.00 0.00 0.00 0.00 0.00 0.00 0.00 0.00 0.00 0.00 0.00 0.00 0.00 0.00 0.00 0.00 0.00 0.00 0.00 0.00 0.00 0.00 0.00 0.00 0.00 0.00 0.00 0.07 0.07 0.03 0.01 0.01 0.01 0.02 0.01 0.01 0.04 0.04 0.03 0.05 0.01 0.00
0.00 0.00 0.00 0.00 0.00 0.00 0.00 0.00 0.00 0.00 0.00 0.00 0.00 0.00 0.00 0.00 0.00 0.00 0.00 0.00 0.00 0.00 0.00 0.00 0.00 0.00 0.00 0.00 0.00 0.00 0.00 0.00 0.00 0.00 0.00 0.01 0.00 0.00 0.00 0.00 0.00 0.00 0.00 0.00 0.00 0.01 0.03 0.03 0.07
0.00 0.00 0.00 0.00 0.00 0.00 0.00 0.00 0.00 0.00 0.00 0.00 0.00 0.00 0.00 0.00 0.00 0.00 0.00 0.00 0.00 0.00 0.00 0.00 0.00 0.00 0.00 0.00 0.00 0.00 0.00 0.00 0.00 0.00 0.00 0.00 0.00 0.00 0.00 0.00 0.00 0.02 0.01 0.00 0.00 0.00 0.01 0.02 0.06
0.00 0.00 0.00 0.00 0.00 0.00 0.00 0.00 0.00 0.00 0.00 0.00 0.00 0.00 0.00 0.00 0.00 0.00 0.00 0.00 0.00 0.00 0.00 0.00 0.00 0.00 0.00 0.00 0.00 0.00 0.00 0.00 0.00 0.00 0.00 0.00 0.00 0.00 0.00 0.00 0.00 0.01 0.01 0.01 0.01 0.00 0.00 0.01 0.03
0.00 0.00 0.00 0.00 0.00 0.00 0.00 0.00 0.00 0.00 0.00 0.00 0.00 0.00 0.00 0.00 0.00 0.00 0.00 0.00 0.00 0.00 0.00 0.00 0.00 0.00 0.00 0.00 0.00 0.00 0.00 0.00 0.00 0.00 0.00 0.00 0.00 0.00 0.00 0.00 0.00 0.02 0.00 0.01 0.01 0.02 0.01 0.00 0.01
0.00 0.00 0.00 0.00 0.00 0.00 0.00 0.00 0.00 0.00 0.00 0.00 0.00 0.00 0.00 0.00 0.00 0.00 0.00 0.00 0.00 0.00 0.00 0.00 0.00 0.00 0.00 0.00 0.00 0.00 0.00 0.00 0.00 0.00 0.00 0.00 0.00 0.00 0.00 0.00 0.00 0.00 0.00 0.01 0.02 0.03 0.01 0.01 0.01
0.00 0.00 0.00 0.00 0.00 0.00 0.00 0.00 0.00 0.00 0.00 0.00 0.00 0.00 0.00 0.00 0.00 0.00 0.00 0.00 0.00 0.00 0.00 0.00 0.00 0.00 0.00 0.00 0.00 0.00 0.00 0.00 0.00 0.00 0.00 0.00 0.00 0.00 0.00 0.00 0.00 0.00 0.00 0.01 0.02 0.02 0.02 0.02 0.01
0.00 0.00 0.00 0.00 0.00 0.00 0.00 0.00 0.00 0.00 0.00 0.00 0.00 0.00 0.00 0.00 0.00 0.00 0.00 0.00 0.00 0.00 0.00 0.00 0.00 0.00 0.00 0.00 0.00 0.00 0.00 0.00 0.00 0.00 0.00 0.00 0.00 0.00 0.00 0.00 0.00 0.00 0.00 0.00 0.02 0.01 0.01 0.02 0.02
0.00 0.00 0.00 0.00 0.00 0.00 0.00 0.00 0.00 0.00 0.00 0.00 0.00 0.00 0.00 0.00 0.00 0.00 0.00 0.00 0.00 0.00 0.00 0.00 0.00 0.00 0.00 0.00 0.00 0.00 0.00 0.00 0.00 0.00 0.00 0.00 0.00 0.00 0.00 0.00 0.00 0.00 0.00 0.00 0.01 0.00 0.01 0.01 0.01
0.00 0.00 0.00 0.00 0.01 0.02 0.00 0.00 0.00 0.00 0.00 0.00 0.00 0.00 0.00 0.00 0.00 0.00 0.00 0.00 0.00 0.00 0.00 0.00 0.00 0.00 0.00 0.00 0.00 0.00 0.00 0.00 0.00 0.00 0.00 0.00 0.00 0.00 0.00 0.00 0.00 0.00 0.00 0.00 0.00 0.00 0.00 0.02 0.01
0.00 0.00 0.00 0.00 0.00 0.01 0.01 0.00 0.00 0.00 0.00 0.00 0.00 0.00 0.00 0.00 0.00 0.00 0.00 0.00 0.00 0.00 0.00 0.00 0.00 0.00 0.00 0.00 0.00 0.00 0.00 0.00 0.00 0.00 0.00 0.00 0.00 0.00 0.00 0.00 0.00 0.00 0.00 0.00 0.00 0.00 0.00 0.01 0.01
0.00 0.00 0.00 0.02 0.01 0.02 0.02 0.01 0.00 0.00 0.00 0.00 0.00 0.00 0.00 0.00 0.00 0.00 0.00 0.00 0.00 0.00 0.00 0.00 0.00 0.00 0.00 0.00 0.00 0.00 0.00 0.00 0.00 0.00 0.00 0.00 0.00 0.00 0.00 0.00 0.00 0.00 0.00 0.00 0.00 0.00 0.00 0.00 0.01
MSLP
1009.31 1008.61 1007.95 1006.52 1005.54 1002.94 1000.24 997.80 996.18 996.52 996.53 997.18 997.81 999.51 1004.67 1007.82 1006.53 1005.80 1004.81 1004.36 1005.62 1007.08 1007.75 1008.51 1009.21 1009.80 1010.06 1010.38 1011.06 1011.56 1012.01 1012.47 1012.83 1013.20 1013.49 1013.76 1013.86 1014.15 1014.36 1014.56 1014.71 1014.91 1015.10 1015.26 1015.38 1015.50 1015.65 1015.82 1015.91
1008.80 1007.72 1006.66 1005.45 1003.88 1001.17 998.38 996.60 996.56 996.76 997.08 997.75 998.42 1000.26 1004.81 1004.91 1004.89 1006.04 1005.98 1004.85 1005.84 1007.20 1007.76 1008.30 1009.10 1009.92 1010.12 1010.52 1010.96 1011.47 1012.02 1012.57 1013.02 1013.34 1013.70 1013.94 1014.13 1014.41 1014.62 1014.80 1014.94 1015.10 1015.29 1015.46 1015.55 1015.66 1015.80 1015.96 1016.10
1008.94 1007.26 1005.95 1004.14 1002.46 1000.34 998.16 997.21 997.02 997.26 997.80 998.16 998.42 1000.65 1003.46 1004.34 1005.17 1007.00 1004.88 1005.27 1006.30 1007.40 1007.48 1008.60 1009.38 1009.96 1010.26 1010.74 1011.13 1011.59 1012.07 1012.54 1013.00 1013.38 1013.78 1014.12 1014.36 1014.57 1014.86 1015.02 1015.18 1015.32 1015.46 1015.62 1015.78 1015.91 1015.97 1016.04 1016.17
1007.49 1006.31 1005.58 1003.31 1000.92 999.22 998.12 998.19 998.38 998.30 998.22 998.25 998.65 1000.52 1002.53 1003.15 1003.56 1003.92 1004.33 1005.34 1006.37 1006.89 1007.48 1008.80 1009.38 1010.00 1010.39 1010.81 1011.32 1011.78 1012.28 1012.71 1013.11 1013.44 1013.89 1014.26 1014.62 1014.72 1014.89 1015.13 1015.26 1015.48 1015.63 1015.78 1015.93 1016.06 1016.18 1016.20 1016.32
1006.84 1005.33 1003.82 1001.82 1000.28 998.77 998.41 998.84 999.18 998.35 998.00 998.59 999.32 1001.93 1002.13 1002.37 1002.87 1003.76 1004.31 1005.09 1005.55 1006.28 1007.66 1008.72 1009.39 1009.92 1010.30 1010.79 1011.32 1011.77 1012.26 1012.79 1013.15 1013.43 1013.81 1014.26 1014.62 1014.87 1015.13 1015.27 1015.43 1015.54 1015.73 1015.86 1016.04 1016.13 1016.23 1016.41 1016.52
1005.71 1004.74 1003.04 1001.17 999.58 998.38 998.69 999.16 999.30 998.76 998.50 998.47 999.90 1002.02 1004.04 1002.92 1002.51 1003.20 1004.06 1004.50 1005.01 1006.37 1007.54 1008.79 1009.61 1010.09 1010.52 1010.96 1011.38 1011.76 1012.12 1012.58 1013.01 1013.41 1013.83 1014.28 1014.62 1014.88 1015.13 1015.28 1015.48 1015.60 1015.77 1015.93 1016.10 1016.16 1016.32 1016.49 1016.63
1005.04 1003.70 1002.28 1000.70 998.91 998.15 998.69 999.43 999.35 998.92 998.83 998.84 999.67 1000.66 1001.87 1002.09 1001.10 1001.45 1003.28 1003.91 1004.91 1006.43 1007.64 1008.74 1009.58 1010.27 1010.76 1011.12 1011.42 1011.76 1012.25 1012.65 1012.97 1013.30 1013.63 1014.06 1014.46 1014.84 1015.06 1015.36 1015.51 1015.66 1015.89 1016.02 1016.11 1016.28 1016.41 1016.62 1016.68
1004.62 1003.57 1002.11 1000.64 999.05 998.04 998.71 999.81 999.80 999.43 999.73 1000.04 1000.20 1001.25 1001.79 1002.32 999.61 1000.94 1003.04 1003.94 1004.79 1005.99 1007.43 1008.56 1009.21 1009.98 1010.68 1011.27 1011.68 1011.96 1012.30 1012.62 1012.93 1013.30 1013.64 1013.98 1014.28 1014.58 1014.89 1015.18 1015.41 1015.58 1015.82 1016.02 1016.16 1016.25 1016.45 1016.68 1016.69
1003.82 1003.47 1001.91 1000.34 999.11 998.28 999.12 999.90 1000.05 1000.48 1000.34 1000.55 1000.61 1001.51 1001.78 1002.36 1002.37 1002.68 1002.99 1003.44 1003.88 1004.66 1005.92 1007.03 1008.06 1009.00 1009.82 1010.60 1011.56 1012.00 1012.33 1012.62 1012.84 1013.14 1013.46 1013.79 1013.92 1014.26 1014.62 1014.73 1015.09 1015.43 1015.72 1015.97 1016.10 1016.20 1016.40 1016.53 1016.68
1003.80 1002.84 1001.27 999.72 999.22 998.54 998.92 999.95 999.98 1000.83 1000.85 1000.87 1001.33 1002.28 1002.62 1002.72 1002.62 1002.31 1002.35 1002.55 1003.01 1004.18 1006.40 1007.03 1007.80 1008.14 1008.26 1009.45 1011.00 1011.52 1011.82 1012.04 1012.29 1012.51 1012.94 1013.14 1013.08 1013.40 1013.63 1014.18 1014.79 1015.20 1015.50 1015.82 1015.98 1016.14 1016.31 1016.50 1016.39
1002.87 1002.30 1000.82 1000.38 1000.29 999.87 999.70 1000.24 1000.57 1000.97 1000.89 1000.96 1001.33 1002.07 1002.82 1002.86 1002.78 1002.56 1002.30 1002.49 1002.80 1003.70 1005.00 1006.18 1006.03 1007.67 1005.98 1008.18 1008.96 1010.08 1010.69 1011.16 1011.38 1011.49 1011.92 1012.24 1012.01 1012.34 1012.76 1013.97 1014.70 1015.12 1015.38 1015.60 1015.83 1016.00 1016.05 1015.84 1015.51
1002.14 1001.86 1001.32 1001.30 1000.76 1001.10 1001.11 1000.92 1001.05 1001.32 1001.26 1000.88 1001.28 1001.62 1002.33 1002.90 1003.06 1003.14 1002.80 1002.68 1002.89 1003.35 1004.41 1005.56 1007.02 1007.14 1007.22 1008.13 1009.78 1007.71 1008.79 1009.26 1009.91 1010.86 1011.68 1012.05 1011.79 1011.51 1011.98 1012.95 1013.64 1014.29 1014.69 1014.87 1015.09 1015.13 1015.07 1014.96 1014.98
1001.86 1001.90 1001.30 1001.68 1001.66 1002.00 1001.96 1001.71 1001.58 1001.37 1001.48 1001.32 1001.70 1002.36 1002.87 1003.28 1003.57 1003.43 1003.35 1003.43 1003.73 1004.21 1004.72 1005.22 1006.27 1007.20 1007.57 1008.20 1008.58 1008.27 1008.64 1009.70 1009.64 1010.42 1011.08 1011.56 1011.94 1011.60 1010.97 1011.74 1012.76 1013.58 1013.69 1014.10 1014.41 1014.16 1014.30 1014.17 1014.22
1001.84 1001.74 1001.41 1001.72 1001.81 1002.12 1002.24 1002.09 1001.88 1001.86 1001.69 1001.52 1001.86 1002.47 1002.82 1003.49 1003.74 1003.84 1004.01 1004.18 1004.42 1004.74 1005.14 1005.40 1005.90 1006.99 1007.74 1007.80 1008.07 1008.70 1009.78 1009.51 1009.87 1010.88 1012.86 1012.37 1011.88 1012.24 1011.26 1011.04 1011.84 1012.86 1013.01 1013.25 1013.27 1013.50 1013.71 1013.73 1013.78
1002.20 1002.12 1001.83 1001.74 1001.71 1001.93 1001.92 1001.90 1001.60 1001.46 1001.51 1001.58 1001.89 1002.50 1002.76 1002.90 1003.30 1003.69 1004.04 1004.50 1004.93 1005.17 1005.40 1005.86 1006.08 1006.63 1007.26 1007.85 1008.37 1008.47 1008.51 1008.27 1010.50 1011.29 1012.27 1012.88 1011.38 1011.70 1011.90 1011.18 1011.81 1012.19 1012.65 1012.61 1012.87 1012.93 1013.25 1013.67 1014.02
1002.55 1002.47 1001.68 1001.05 1001.22 1001.57 1002.10 1001.50 1000.81 1000.81 1001.30 1001.43 1002.02 1002.10 1002.27 1002.52 1002.94 1003.45 1003.91 1004.27 1004.75 1005.24 1005.68 1006.04 1006.08 1006.90 1007.58 1008.14 1008.62 1008.63 1008.50 1008.82 1009.40 1010.76 1011.78 1011.34 1012.17 1011.88 1011.07 1011.31 1011.82 1012.33 1012.82 1012.90 1013.15 1013.20 1013.47 1013.68 1013.98
1002.18 1001.58 1000.92 1000.32 999.82 1000.88 1001.53 1001.43 1000.54 1000.05 1000.76 1001.21 1001.64 1001.78 1001.88 1002.01 1002.32 1002.81 1003.40 1003.97 1004.51 1005.05 1005.61 1006.08 1006.39 1006.93 1007.74 1008.28 1008.62 1008.61 1008.67 1009.05 1009.10 1009.45 1010.66 1011.45 1011.34 1010.45 1011.26 1012.05 1012.11 1012.16 1012.85 1013.16 1013.20 1013.17 1013.33 1013.60 1013.74
1000.66 1000.53 999.96 999.60 999.69 1000.43 1000.85 1000.79 1000.72 1000.34 1000.26 1000.71 1001.08 1001.31 1001.41 1001.54 1001.73 1002.13 1002.72 1003.31 1004.03 1004.72 1005.41 1006.13 1006.53 1006.94 1007.67 1008.30 1008.53 1008.81 1008.73 1008.90 1008.96 1008.98 1009.15 1010.77 1010.53 1010.29 1011.42 1011.75 1012.14 1012.53 1013.05 1013.42 1013.62 1013.88 1013.42 1013.30 1013.68
1000.92 1000.79 1000.52 999.75 999.35 999.83 1000.01 1000.15 1000.40 1000.24 1000.06 999.87 1000.01 1000.26 1000.59 1000.76 1001.08 1001.58 1002.14 1002.73 1003.56 1004.40 1005.12 1005.86 1006.53 1006.89 1007.44 1008.02 1008.38 1008.51 1008.47 1008.70 1008.69 1008.64 1010.64 1010.99 1011.49 1010.57 1011.22 1012.09 1012.47 1012.97 1013.23 1013.62 1013.89 1013.94 1013.73 1013.58 1013.57
1001.47 1001.52 1001.15 1000.68 1000.29 1000.16 999.97 999.70 999.86 999.89 999.76 999.49 999.27 999.29 999.66 999.96 1000.42 1001.15 1001.70 1002.59 1003.44 1004.28 1004.95 1005.55 1006.29 1006.67 1007.00 1007.48 1007.87 1007.91 1008.02 1008.08 1008.35 1008.56 1009.27 1010.29 1009.92 1009.83 1010.86 1011.86 1012.10 1012.48 1013.04 1013.60 1013.60 1013.76 1013.79 1013.95 1014.48
1001.84 1001.74 1001.41 1001.06 1000.63 1000.26 1000.11 999.53 999.55 999.24 998.84 998.69 998.48 998.54 998.86 999.18 999.84 1000.63 1001.42 1002.38 1003.40 1004.27 1004.74 1005.29 1006.04 1006.48 1006.63 1007.06 1007.42 1007.71 1007.96 1008.05 1008.35 1008.86 1009.04 1009.08 1009.24 1009.90 1010.58 1011.44 1011.92 1012.53 1012.93 1012.85 1013.06 1013.40 1013.74 1014.08 1014.41
1001.55 1001.42 1001.18 1001.08 1001.13 1000.69 1000.53 999.04 998.73 997.97 997.35 997.03 997.31 997.89 998.19 998.75 999.35 1000.07 1000.86 1001.87 1002.78 1003.76 1004.48 1005.00 1005.71 1006.11 1006.42 1006.75 1007.16 1007.48 1008.00 1008.24 1008.36 1008.49 1008.64 1009.16 1009.43 1010.02 1010.38 1010.87 1011.51 1012.04 1012.44 1012.62 1012.70 1012.81 1013.16 1013.63 1014.18
1001.40 1001.49 1001.74 1001.85 1001.80 1001.47 1000.77 1000.03 998.29 997.74 996.79 996.26 996.30 997.02 997.50 998.21 999.07 999.71 1000.48 1001.22 1001.99 1002.96 1003.88 1004.64 1005.29 1005.67 1006.04 1006.56 1006.89 1007.23 1007.75 1008.12 1008.18 1008.27 1008.58 1009.04 1009.49 1009.84 1010.00 1010.48 1011.11 1011.59 1012.00 1012.26 1012.30 1012.50 1012.89 1013.04 1013.48
1001.59 1001.91 1001.90 1002.14 1002.03 1001.20 1000.31 999.82 997.24 997.04 996.11 995.41 994.91 995.93 996.93 997.68 998.48 999.24 999.91 1000.70 1001.60 1002.32 1003.14 1004.07 1004.92 1005.45 1005.76 1006.29 1006.65 1007.14 1007.43 1007.82 1008.05 1008.21 1008.75 1009.12 1009.44 1009.65 1009.94 1010.26 1010.72 1011.24 1011.64 1011.92 1012.08 1012.29 1012.51 1012.70 1013.01
1001.11 1001.70 1001.51 1001.57 1001.24 999.99 999.31 998.29 997.45 996.81 996.44 996.06 995.98 996.07 996.79 997.48 998.05 998.98 999.87 1000.76 1001.75 1002.29 1002.49 1003.66 1004.52 1005.20 1005.64 1006.03 1006.43 1006.81 1007.24 1007.46 1007.85 1008.13 1008.36 1008.80 1009.12 1009.39 1009.77 1010.11 1010.47 1010.97 1011.39 1011.70 1012.00 1012.04 1012.24 1012.57 1012.82
1000.56 1001.24 1001.68 1001.35 1001.59 1001.10 999.85 998.13 997.15 996.55 996.14 996.62 996.64 996.71 996.92 997.59 998.12 998.83 999.76 1000.74 1001.49 1002.12 1002.77 1003.64 1004.68 1005.40 1005.77 1006.04 1006.28 1006.58 1006.91 1007.37 1007.64 1007.98 1008.20 1008.60 1008.94 1009.10 1009.47 1010.02 1010.50 1010.90 1011.25 1011.51 1011.69 1011.85 1011.96 1012.13 1012.35
1000.44 1000.32 1001.03 1001.45 1001.96 1001.87 1000.38 999.45 997.81 996.63 996.03 996.42 996.91 997.14 997.37 997.73 998.28 998.80 999.51 1000.36 1001.09 1001.84 1002.84 1003.76 1004.72 1005.32 1005.84 1006.22 1006.52 1006.79 1007.03 1007.37 1007.60 1007.80 1008.16 1008.48 1008.72 1009.03 1009.40 1009.88 1010.30 1010.66 1011.06 1011.33 1011.52 1011.64 1011.72 1011.74 1011.86
1001.36 1001.45 1001.59 1002.01 1002.17 1001.87 1000.29 999.74 998.21 997.88 998.08 998.92 999.88 999.12 998.03 998.25 998.48 999.05 999.32 1000.02 1000.77 1001.61 1002.45 1003.29 1004.26 1004.80 1005.39 1005.85 1006.27 1006.61 1006.97 1007.28 1007.58 1007.79 1008.10 1008.30 1008.62 1008.99 1009.46 1009.86 1010.21 1010.58 1010.83 1011.00 1011.22 1011.36 1011.34 1011.39 1011.38
1002.58 1001.82 1002.18 1003.34 1004.20 1003.64 1002.48 1000.00 998.94 999.03 999.82 999.74 999.80 999.53 999.26 998.92 998.51 998.82 999.53 1000.10 1000.63 1001.33 1002.06 1003.00 1003.76 1004.34 1004.86 1005.38 1005.84 1006.32 1006.74 1007.08 1007.42 1007.74 1008.00 1008.28 1008.60 1008.98 1009.42 1009.81 1010.12 1010.41 1010.58 1010.70 1010.88 1011.02 1011.05 1011.09 1011.09
1003.84 1003.41 1003.68 1004.16 1005.54 1006.08 1005.56 1002.79 1001.15 999.97 1001.18 1002.30 1000.96 1000.78 1000.65 999.69 998.92 998.84 999.24 1000.01 1000.52 1000.94 1001.76 1002.55 1003.35 1004.06 1004.47 1004.85 1005.23 1005.63 1006.08 1006.56 1007.12 1007.47 1007.73 1008.07 1008.43 1008.85 1009.27 1009.60 1009.76 1009.92 1010.17 1010.34 1010.50 1010.63 1010.58 1010.72 1010.74
Thickness
5808 5815 5823 5822 5791 5810 5815 5841 5881 5864 5867 5883 5888 5862 5791 5759 5768 5777 5845 5858 5852 5842 5839 5835 5832 5829 5829 5828 5823 5820 5815 5812 5810 5806 5803 5800 5797 5795 5793 5791 5790 5787 5785 5783 5781 5780 5778 5776 5774
5811 5820 5824 5813 5789 5795 5827 5875 5857 5869 5876 5883 5881 5857 5783 5787 5825 5822 5828 5854 5853 5841 5839 5837 5834 5828 5828 5826 5822 5819 5814 5811 5807 5805 5802 5799 5796 5792 5791 5789 5787 5786 5783 5781 5779 5778 5776 5774 5773
5808 5822 5805 5802 5799 5798 5829 5861 5863 5869 5877 5873 5871 5851 5818 5786 5818 5797 5842 5856 5849 5840 5841 5834 5830 5826 5826 5822 5820 5816 5812 5809 5806 5803 5800 5797 5795 5792 5788 5786 5784 5783 5781 5779 5777 5775 5774 5773 5772
5809 5813 5809 5793 5803 5835 5848 5849 5854 5858 5869 5879 5874 5825 5833 5842 5841 5849 5857 5855 5847 5845 5839 5831 5828 5824 5822 5819 5816 5812 5809 5806 5803 5800 5797 5794 5791 5790 5788 5785 5783 5780 5779 5777 5775 5773 5772 5771 5769
5810 5808 5789 5799 5814 5843 5852 5852 5853 5854 5862 5865 5862 5808 5825 5849 5861 5858 5855 5853 5849 5846 5836 5829 5825 5821 5819 5816 5811 5808 5805 5802 5799 5798 5795 5792 5789 5787 5785 5783 5780 5778 5776 5775 5773 5772 5770 5767 5766
5790 5802 5781 5789 5817 5848 5844 5850 5849 5853 5860 5865 5846 5813 5807 5854 5859 5858 5858 5854 5854 5840 5833 5824 5819 5816 5813 5810 5807 5804 5802 5799 5796 5794 5792 5788 5786 5784 5782 5780 5778 5776 5775 5773 5771 5770 5768 5766 5764
5786 5790 5786 5804 5826 5841 5836 5849 5841 5847 5849 5851 5862 5823 5837 5847 5858 5866 5856 5854 5849 5837 5827 5819 5814 5810 5806 5804 5802 5800 5796 5793 5791 5789 5788 5785 5782 5780 5780 5777 5775 5773 5771 5770 5770 5768 5766 5764 5763
5796 5794 5786 5804 5816 5834 5839 5837 5845 5845 5831 5859 5859 5813 5819 5844 5857 5860 5852 5847 5842 5837 5826 5818 5814 5808 5803 5798 5795 5793 5790 5788 5786 5784 5783 5780 5779 5777 5777 5775 5773 5772 5769 5767 5766 5766 5765 5762 5762
5812 5774 5776 5801 5818 5836 5835 5824 5840 5845 5835 5842 5846 5835 5843 5849 5854 5846 5841 5840 5838 5838 5837 5828 5820 5812 5805 5799 5793 5790 5787 5784 5782 5780 5779 5777 5776 5775 5774 5774 5772 5769 5767 5765 5764 5763 5762 5761 5760
5786 5775 5790 5830 5834 5838 5834 5824 5829 5820 5822 5824 5825 5833 5838 5842 5840 5839 5837 5834 5838 5833 5819 5822 5818 5813 5810 5800 5788 5786 5785 5784 5782 5780 5777 5775 5777 5775 5775 5772 5769 5766 5765 5763 5761 5760 5759 5758 5760
5793 5778 5809 5815 5820 5827 5823 5820 5826 5813 5807 5820 5815 5820 5824 5828 5832 5834 5837 5839 5840 5834 5822 5817 5827 5809 5817 5811 5804 5792 5788 5786 5786 5786 5782 5778 5778 5778 5775 5767 5763 5761 5760 5758 5758 5757 5757 5759 5762
5784 5800 5806 5806 5818 5811 5805 5817 5810 5811 5814 5830 5829 5827 5826 5821 5820 5823 5827 5833 5837 5834 5826 5824 5811 5809 5804 5794 5798 5807 5801 5797 5793 5783 5772 5770 5775 5775 5773 5768 5764 5762 5759 5759 5758 5758 5760 5760 5762
5788 5792 5805 5805 5804 5802 5804 5798 5801 5806 5821 5827 5824 5819 5811 5810 5812 5819 5823 5825 5823 5819 5818 5816 5815 5796 5789 5791 5795 5799 5798 5790 5769 5774 5768 5766 5762 5767 5772 5767 5764 5758 5762 5759 5758 5760 5760 5761 5763
5794 5793 5797 5798 5795 5795 5787 5790 5798 5802 5816 5816 5812 5810 5809 5803 5805 5808 5810 5810 5811 5811 5809 5811 5807 5803 5799 5795 5792 5789 5779 5779 5775 5763 5716 5734 5744 5752 5766 5764 5762 5759 5760 5758 5760 5761 5761 5760 5759
5786 5771 5782 5786 5790 5784 5793 5777 5782 5805 5810 5805 5806 5803 5804 5806 5807 5803 5805 5803 5804 5806 5806 5800 5799 5799 5797 5790 5785 5784 5787 5788 5765 5758 5753 5726 5742 5747 5747 5753 5751 5753 5754 5756 5758 5758 5757 5755 5752
5763 5764 5750 5782 5785 5786 5778 5756 5793 5806 5800 5797 5797 5801 5803 5805 5805 5806 5805 5804 5803 5801 5798 5797 5796 5789 5786 5781 5777 5777 5777 5775 5771 5758 5745 5750 5735 5735 5744 5745 5745 5743 5744 5749 5748 5750 5749 5748 5745
5757 5740 5752 5767 5793 5780 5771 5758 5789 5805 5797 5791 5792 5795 5798 5802 5806 5807 5806 5804 5801 5798 5793 5791 5788 5781 5779 5773 5771 5772 5772 5764 5762 5758 5754 5746 5743 5737 5736 5731 5734 5740 5737 5736 5741 5743 5745 5743 5742
5752 5754 5766 5764 5778 5773 5764 5765 5780 5791 5792 5788 5789 5791 5793 5795 5800 5805 5805 5804 5800 5796 5791 5786 5783 5777 5772 5768 5766 5763 5764 5760 5756 5760 5761 5737 5743 5735 5730 5728 5727 5728 5727 5728 5727 5729 5738 5740 5737
5761 5754 5750 5772 5792 5771 5761 5764 5771 5783 5785 5787 5789 5791 5791 5793 5802 5803 5802 5802 5796 5790 5786 5779 5774 5773 5767 5761 5756 5755 5754 5753 5751 5757 5738 5699 5725 5728 5721 5718 5718 5718 5718 5718 5717 5719 5726 5729 5732
5749 5738 5740 5758 5771 5764 5762 5759 5771 5776 5778 5784 5788 5790 5790 5793 5794 5793 5793 5792 5787 5780 5779 5774 5769 5767 5765 5760 5755 5755 5754 5753 5750 5750 5748 5723 5729 5730 5721 5716 5717 5716 5713 5711 5712 5714 5715 5719 5716
5735 5729 5734 5736 5754 5760 5752 5747 5755 5772 5779 5783 5790 5794 5792 5789 5785 5785 5783 5781 5779 5772 5770 5767 5762 5761 5760 5756 5754 5750 5749 5746 5743 5738 5737 5737 5733 5727 5722 5716 5713 5711 5709 5710 5710 5708 5708 5705 5707
5718 5746 5743 5738 5729 5713 5747 5715 5749 5768 5774 5781 5783 5785 5786 5784 5784 5782 5777 5773 5772 5766 5766 5763 5758 5755 5754 5752 5747 5741 5733 5730 5733 5735 5734 5731 5728 5722 5720 5716 5713 5709 5707 5704 5707 5707 5705 5703 5697
5724 5741 5730 5726 5716 5714 5723 5709 5740 5763 5761 5774 5778 5778 5782 5781 5777 5773 5771 5769 5769 5767 5761 5757 5753 5751 5749 5744 5741 5738 5731 5729 5730 5730 5728 5725 5723 5720 5718 5714 5710 5706 5703 5701 5702 5703 5700 5700 5698
5735 5723 5721 5717 5711 5690 5719 5716 5738 5747 5762 5777 5791 5780 5774 5777 5773 5771 5769 5766 5762 5760 5757 5752 5745 5742 5742 5739 5735 5731 5727 5724 5722 5720 5717 5716 5713 5714 5712 5710 5707 5702 5700 5697 5696 5698 5697 5694 5695
5726 5704 5681 5679 5688 5694 5738 5729 5735 5757 5760 5765 5768 5771 5772 5773 5769 5762 5755 5751 5749 5746 5748 5745 5739 5733 5733 5732 5729 5725 5723 5721 5716 5716 5714 5711 5709 5706 5706 5706 5703 5696 5694 5693 5691 5692 5692 5690 5689
5719 5709 5679 5655 5661 5679 5723 5705 5733 5765 5770 5765 5768 5769 5763 5757 5758 5753 5747 5742 5739 5738 5737 5732 5727 5721 5722 5722 5721 5719 5718 5715 5713 5710 5709 5706 5703 5702 5700 5698 5696 5694 5690 5687 5685 5685 5686 5687 5687
5711 5703 5719 5689 5687 5673 5691 5706 5743 5765 5762 5760 5754 5751 5749 5745 5741 5743 5741 5735 5732 5729 5724 5720 5715 5713 5711 5709 5708 5708 5707 5705 5704 5704 5703 5701 5700 5698 5695 5692 5689 5687 5684 5682 5679 5677 5678 5681 5683
5702 5712 5680 5686 5653 5651 5679 5685 5700 5725 5722 5704 5702 5710 5735 5736 5732 5729 5732 5727 5725 5720 5717 5715 5710 5706 5705 5704 5701 5699 5698 5696 5696 5696 5694 5693 5690 5690 5685 5684 5681 5679 5677 5677 5675 5672 5673 5674 5678
5677 5681 5687 5669 5658 5632 5636 5674 5724 5722 5705 5707 5704 5709 5714 5722 5725 5723 5721 5719 5718 5714 5708 5702 5699 5698 5697 5695 5694 5690 5688 5687 5686 5685 5685 5684 5682 5681 5677 5673 5671 5669 5669 5670 5669 5668 5669 5667 5670
5664 5661 5662 5632 5620 5611 5607 5627 5704 5711 5690 5669 5683 5693 5700 5714 5718 5721 5714 5708 5705 5702 5698 5692 5691 5689 5688 5688 5686 5684 5681 5680 5677 5675 5676 5675 5673 5671 5668 5665 5663 5663 5661 5662 5662 5662 5664 5663 5663